TAX02JA LPLA-DTTJ

Flight info

Callsign TAX02JA
Flight time 4h 10m
Altitude 33000
Route REGLA DCT LENSI T25 GUNTI/N0461F330 DCT BUSEN DCT BJA/N0456F340 DCT LASIB/N0453F350 DCT TGU J28 ELO UG361 TON UV273 JBA
Aircraft A321/M-SDE3FGHIRWY/LB1

Departure

Time 2026-04-28 19:29
Airport Lajes Airport (LPLA)

Arrival

Time 2026-04-28 23:40
Airport Djerba Zarzis International Airport (DTTJ)
Time Latitude Longitude Altitude Speed Heading
2026-04-28 18:48 38.75555 -27.08698 179 ft 0 kts 95°
2026-04-28 19:18 38.75558 -27.08728 178 ft 4 kts 97°
2026-04-28 19:18 38.75565 -27.08759 178 ft 4 kts 133°
2026-04-28 19:18 38.75568 -27.08764 178 ft 0 kts 139°
2026-04-28 19:20 38.75568 -27.08763 178 ft 1 kts 139°
2026-04-28 19:20 38.75538 -27.08729 178 ft 8 kts 139°
2026-04-28 19:21 38.75514 -27.08681 178 ft 5 kts 101°
2026-04-28 19:21 38.75506 -27.08632 179 ft 9 kts 101°
2026-04-28 19:21 38.75471 -27.08565 179 ft 8 kts 128°
2026-04-28 19:21 38.75474 -27.08493 179 ft 13 kts 50°
2026-04-28 19:22 38.75553 -27.08416 179 ft 10 kts 352°
2026-04-28 19:22 38.75568 -27.08429 179 ft 8 kts 315°
2026-04-28 19:22 38.75716 -27.08444 178 ft 15 kts 49°
2026-04-28 19:22 38.75795 -27.08431 178 ft 14 kts 324°
2026-04-28 19:23 38.75872 -27.08509 177 ft 13 kts 320°
2026-04-28 19:23 38.75954 -27.08594 176 ft 17 kts 320°
2026-04-28 19:23 38.76051 -27.08698 176 ft 18 kts 321°
2026-04-28 19:23 38.76144 -27.08793 175 ft 16 kts 322°
2026-04-28 19:24 38.76228 -27.08878 173 ft 16 kts 321°
2026-04-28 19:24 38.76311 -27.08964 173 ft 15 kts 320°
2026-04-28 19:24 38.76385 -27.09043 171 ft 13 kts 320°
2026-04-28 19:24 38.76456 -27.09118 171 ft 15 kts 321°
2026-04-28 19:25 38.76568 -27.09233 170 ft 22 kts 320°
2026-04-28 19:25 38.76685 -27.09356 169 ft 21 kts 322°
2026-04-28 19:25 38.76794 -27.09466 168 ft 19 kts 319°
2026-04-28 19:25 38.76896 -27.09575 167 ft 20 kts 319°
2026-04-28 19:26 38.77001 -27.09686 166 ft 18 kts 321°
2026-04-28 19:26 38.77097 -27.09782 165 ft 16 kts 320°
2026-04-28 19:26 38.77177 -27.09870 164 ft 14 kts 320°
2026-04-28 19:26 38.77246 -27.09945 163 ft 12 kts 320°
2026-04-28 19:27 38.77264 -27.09997 162 ft 11 kts 253°
2026-04-28 19:27 38.77208 -27.10098 161 ft 10 kts 229°
2026-04-28 19:27 38.77160 -27.10093 161 ft 6 kts 146°
2026-04-28 19:27 38.77151 -27.10084 162 ft 0 kts 142°
2026-04-28 19:28 38.77117 -27.10049 162 ft 30 kts 140°
2026-04-28 19:29 38.76715 -27.09631 170 ft 115 kts 141°
2026-04-28 19:29 38.76221 -27.09116 177 ft 160 kts 141°
2026-04-28 19:29 38.74929 -27.07719 749 ft 198 kts 141°
2026-04-28 19:29 38.73737 -27.06521 1061 ft 234 kts 144°
2026-04-28 19:30 38.72373 -27.05253 1639 ft 246 kts 143°
2026-04-28 19:30 38.71212 -27.03631 2464 ft 252 kts 123°
2026-04-28 19:30 38.70599 -27.01507 3255 ft 263 kts 102°
2026-04-28 19:30 38.70698 -26.99132 4047 ft 274 kts 78°
2026-04-28 19:31 38.71476 -26.96867 4829 ft 282 kts 67°
2026-04-28 19:31 38.72217 -26.94545 5615 ft 282 kts 75°
2026-04-28 19:31 38.72794 -26.92133 6386 ft 285 kts 78°
2026-04-28 19:31 38.73323 -26.89666 7165 ft 289 kts 78°
2026-04-28 19:32 38.73858 -26.87173 7935 ft 292 kts 77°
2026-04-28 19:32 38.74421 -26.84656 8680 ft 295 kts 77°
2026-04-28 19:32 38.75011 -26.82125 9366 ft 298 kts 76°
2026-04-28 19:32 38.75630 -26.79565 10039 ft 303 kts 76°
2026-04-28 19:33 38.76279 -26.76921 10339 ft 323 kts 75°
2026-04-28 19:33 38.76980 -26.74075 10491 ft 345 kts 75°
2026-04-28 19:33 38.77728 -26.71050 10616 ft 368 kts 75°
2026-04-28 19:33 38.78522 -26.67845 10822 ft 385 kts 75°
2026-04-28 19:34 38.79344 -26.64540 11368 ft 392 kts 75°
2026-04-28 19:34 38.80176 -26.61193 12002 ft 396 kts 74°
2026-04-28 19:34 38.81016 -26.57814 12641 ft 400 kts 74°
2026-04-28 19:34 38.81860 -26.54402 13254 ft 403 kts 75°
2026-04-28 19:35 38.82708 -26.50956 13838 ft 407 kts 75°
2026-04-28 19:35 38.83560 -26.47479 14411 ft 410 kts 75°
2026-04-28 19:35 38.84417 -26.43978 14958 ft 414 kts 75°
2026-04-28 19:35 38.85282 -26.40437 15502 ft 418 kts 75°
2026-04-28 19:36 38.86153 -26.36866 16024 ft 421 kts 75°
2026-04-28 19:36 38.87031 -26.33264 16533 ft 425 kts 75°
2026-04-28 19:36 38.87916 -26.29633 17043 ft 428 kts 75°
2026-04-28 19:36 38.88804 -26.25974 17545 ft 431 kts 75°
2026-04-28 19:37 38.89697 -26.22283 18038 ft 434 kts 75°
2026-04-28 19:37 38.90292 -26.19821 18356 ft 437 kts 75°
2026-04-28 19:37 38.91489 -26.14866 18974 ft 441 kts 75°
2026-04-28 19:37 38.92399 -26.11089 19435 ft 444 kts 75°
2026-04-28 19:38 38.93316 -26.07284 19880 ft 448 kts 75°
2026-04-28 19:38 38.94239 -26.03448 20320 ft 451 kts 75°
2026-04-28 19:38 38.95167 -25.99584 20757 ft 454 kts 76°
2026-04-28 19:38 38.96100 -25.95690 21185 ft 457 kts 75°
2026-04-28 19:39 38.97052 -25.91722 21637 ft 460 kts 75°
2026-04-28 19:39 38.97996 -25.87791 22041 ft 463 kts 75°
2026-04-28 19:39 38.98949 -25.83825 22436 ft 466 kts 75°
2026-04-28 19:39 38.99894 -25.79887 22830 ft 469 kts 75°
2026-04-28 19:40 39.00854 -25.75869 23207 ft 472 kts 75°
2026-04-28 19:40 39.01813 -25.71824 23576 ft 474 kts 75°
2026-04-28 19:40 39.02773 -25.67753 23943 ft 477 kts 75°
2026-04-28 19:40 39.03740 -25.63655 24296 ft 480 kts 75°
2026-04-28 19:41 39.04712 -25.59538 24674 ft 482 kts 75°
2026-04-28 19:41 39.05688 -25.55404 25023 ft 484 kts 75°
2026-04-28 19:41 39.06669 -25.51249 25334 ft 487 kts 75°
2026-04-28 19:41 39.07651 -25.47069 25667 ft 489 kts 75°
2026-04-28 19:42 39.08634 -25.42867 26006 ft 491 kts 75°
2026-04-28 19:42 39.09621 -25.38647 26353 ft 493 kts 75°
2026-04-28 19:42 39.10611 -25.34410 26661 ft 495 kts 75°
2026-04-28 19:42 39.11267 -25.31599 26880 ft 496 kts 75°
2026-04-28 19:43 39.12592 -25.25920 27458 ft 494 kts 75°
2026-04-28 19:43 39.13579 -25.21680 27862 ft 494 kts 75°
2026-04-28 19:43 39.14562 -25.17445 28260 ft 493 kts 75°
2026-04-28 19:43 39.15542 -25.13216 28660 ft 492 kts 75°
2026-04-28 19:44 39.16519 -25.08996 29068 ft 491 kts 75°
2026-04-28 19:44 39.17491 -25.04782 29437 ft 490 kts 75°
2026-04-28 19:44 39.18459 -25.00568 29794 ft 490 kts 75°
2026-04-28 19:44 39.19424 -24.96361 30171 ft 489 kts 75°
2026-04-28 19:45 39.20392 -24.92163 30537 ft 488 kts 75°
2026-04-28 19:45 39.21358 -24.87967 30877 ft 488 kts 75°
2026-04-28 19:45 39.22306 -24.83831 31235 ft 487 kts 75°
2026-04-28 19:45 39.23275 -24.79586 31592 ft 487 kts 75°
2026-04-28 19:46 39.24216 -24.75459 31921 ft 486 kts 75°
2026-04-28 19:46 39.25165 -24.71275 32247 ft 486 kts 75°
2026-04-28 19:46 39.26108 -24.67102 32571 ft 485 kts 75°
2026-04-28 19:46 39.27052 -24.62924 32896 ft 485 kts 75°
2026-04-28 19:47 39.27997 -24.58746 33203 ft 485 kts 75°
2026-04-28 19:47 39.28941 -24.54573 33530 ft 484 kts 75°
2026-04-28 19:47 39.29884 -24.50405 33844 ft 483 kts 75°
2026-04-28 19:47 39.30823 -24.46239 34127 ft 483 kts 75°
2026-04-28 19:48 39.31761 -24.42073 34415 ft 483 kts 75°
2026-04-28 19:48 39.32693 -24.37909 34698 ft 483 kts 75°
2026-04-28 19:48 39.33622 -24.33740 34918 ft 484 kts 75°
2026-04-28 19:48 39.34549 -24.29567 34977 ft 483 kts 75°
2026-04-28 19:49 39.36395 -24.21248 34980 ft 481 kts 75°
2026-04-28 19:49 39.38244 -24.12939 34979 ft 481 kts 75°
2026-04-28 19:50 39.41002 -24.00466 34979 ft 481 kts 75°
2026-04-28 19:51 39.42833 -23.92148 34977 ft 481 kts 75°
2026-04-28 19:51 39.44656 -23.83828 34973 ft 481 kts 75°
2026-04-28 19:52 39.46464 -23.75482 34975 ft 481 kts 75°
2026-04-28 19:52 39.48271 -23.67132 34978 ft 482 kts 75°
2026-04-28 19:53 39.50080 -23.58776 34984 ft 482 kts 75°
2026-04-28 19:53 39.51882 -23.50426 34986 ft 481 kts 75°
2026-04-28 19:54 39.53680 -23.42084 34987 ft 481 kts 75°
2026-04-28 19:54 39.55458 -23.33782 35001 ft 482 kts 75°
2026-04-28 19:55 39.57238 -23.25414 34988 ft 482 kts 75°
2026-04-28 19:55 39.59017 -23.17048 34994 ft 481 kts 75°
2026-04-28 19:56 39.60786 -23.08681 34986 ft 481 kts 74°
2026-04-28 19:56 39.62551 -23.00306 34988 ft 481 kts 74°
2026-04-28 19:57 39.64310 -22.91925 34999 ft 481 kts 74°
2026-04-28 19:57 39.66062 -22.83551 34991 ft 481 kts 74°
2026-04-28 19:58 39.67807 -22.75165 34988 ft 481 kts 74°
2026-04-28 19:58 39.69543 -22.66777 34986 ft 481 kts 74°
2026-04-28 19:59 39.71279 -22.58388 34986 ft 481 kts 74°
2026-04-28 19:59 39.73005 -22.49996 34999 ft 481 kts 74°
2026-04-28 20:00 39.74726 -22.41608 34999 ft 480 kts 74°
2026-04-28 20:00 39.76424 -22.33225 34996 ft 480 kts 74°
2026-04-28 20:01 39.78125 -22.24838 35000 ft 480 kts 74°
2026-04-28 20:01 39.79816 -22.16512 34988 ft 479 kts 74°
2026-04-28 20:02 39.81509 -22.08127 34999 ft 479 kts 74°
2026-04-28 20:02 39.83192 -21.99735 34990 ft 479 kts 74°
2026-04-28 20:03 39.84873 -21.91339 35003 ft 480 kts 74°
2026-04-28 20:03 39.86546 -21.82940 35003 ft 479 kts 74°
2026-04-28 20:04 39.88209 -21.74553 34989 ft 479 kts 74°
2026-04-28 20:04 39.89867 -21.66156 34986 ft 479 kts 74°
2026-04-28 20:05 39.91518 -21.57757 34983 ft 478 kts 74°
2026-04-28 20:05 39.93152 -21.49416 34978 ft 478 kts 74°
2026-04-28 20:06 39.94787 -21.41011 34975 ft 478 kts 74°
2026-04-28 20:06 39.96419 -21.32606 34971 ft 479 kts 74°
2026-04-28 20:07 39.98050 -21.24182 34972 ft 479 kts 74°
2026-04-28 20:07 39.99665 -21.15741 34972 ft 480 kts 74°
2026-04-28 20:08 40.01289 -21.07296 34982 ft 479 kts 73°
2026-04-28 20:08 40.02907 -20.98867 34995 ft 479 kts 73°
2026-04-28 20:09 40.04509 -20.90438 34996 ft 478 kts 73°
2026-04-28 20:09 40.06109 -20.82008 34988 ft 479 kts 73°
2026-04-28 20:10 40.07701 -20.73579 34977 ft 476 kts 73°
2026-04-28 20:10 40.09278 -20.65176 34970 ft 477 kts 73°
2026-04-28 20:11 40.10845 -20.56751 34970 ft 478 kts 73°
2026-04-28 20:11 40.12418 -20.48295 34972 ft 479 kts 72°
2026-04-28 20:12 40.13989 -20.39818 34976 ft 480 kts 72°
2026-04-28 20:12 40.15553 -20.31320 34979 ft 481 kts 72°
2026-04-28 20:13 40.17115 -20.22805 34982 ft 482 kts 72°
2026-04-28 20:13 40.18675 -20.14287 34985 ft 482 kts 72°
2026-04-28 20:14 40.19847 -20.05637 34984 ft 486 kts 81°
2026-04-28 20:14 40.20450 -19.96825 34983 ft 487 kts 82°
2026-04-28 20:15 40.21015 -19.88002 34983 ft 487 kts 82°
2026-04-28 20:15 40.21557 -19.79242 34984 ft 487 kts 82°
2026-04-28 20:16 40.22105 -19.70407 34985 ft 487 kts 82°
2026-04-28 20:16 40.22666 -19.61572 35003 ft 487 kts 82°
2026-04-28 20:17 40.23214 -19.52737 34999 ft 487 kts 82°
2026-04-28 20:17 40.23649 -19.45393 34987 ft 487 kts 82°
2026-04-28 20:18 40.24169 -19.36574 34998 ft 486 kts 82°
2026-04-28 20:18 40.24698 -19.27751 34986 ft 486 kts 81°
2026-04-28 20:19 40.25222 -19.18927 34987 ft 486 kts 81°
2026-04-28 20:19 40.25732 -19.10100 34982 ft 486 kts 81°
2026-04-28 20:20 40.26237 -19.01269 34984 ft 486 kts 81°
2026-04-28 20:20 40.26729 -18.92433 34977 ft 487 kts 81°
2026-04-28 20:21 40.27217 -18.83586 34971 ft 487 kts 81°
2026-04-28 20:21 40.27706 -18.74740 34968 ft 488 kts 81°
2026-04-28 20:22 40.28186 -18.65873 34963 ft 488 kts 81°
2026-04-28 20:22 40.28655 -18.56991 34961 ft 489 kts 81°
2026-04-28 20:23 40.29111 -18.48092 34962 ft 490 kts 81°
2026-04-28 20:23 40.29569 -18.39237 34954 ft 491 kts 81°
2026-04-28 20:24 40.30030 -18.30306 34952 ft 492 kts 81°
2026-04-28 20:24 40.30477 -18.21356 34956 ft 493 kts 81°
2026-04-28 20:25 40.30916 -18.12398 34957 ft 494 kts 81°
2026-04-28 20:25 40.31356 -18.03419 34954 ft 494 kts 81°
2026-04-28 20:26 40.31792 -17.94433 34955 ft 494 kts 81°
2026-04-28 20:26 40.32208 -17.85436 34956 ft 495 kts 81°
2026-04-28 20:27 40.32621 -17.76438 34954 ft 495 kts 81°
2026-04-28 20:27 40.33029 -17.67442 34966 ft 495 kts 81°
2026-04-28 20:28 40.33428 -17.58447 34974 ft 494 kts 81°
2026-04-28 20:28 40.33820 -17.49473 34981 ft 493 kts 82°
2026-04-28 20:29 40.34207 -17.40504 34985 ft 492 kts 82°
2026-04-28 20:29 40.34586 -17.31558 35000 ft 491 kts 82°
2026-04-28 20:30 40.34953 -17.22646 34987 ft 489 kts 82°
2026-04-28 20:30 40.35315 -17.13765 34982 ft 487 kts 82°
2026-04-28 20:31 40.35667 -17.04912 34981 ft 485 kts 83°
2026-04-28 20:31 40.36015 -16.96087 34978 ft 484 kts 83°
2026-04-28 20:32 40.36351 -16.87285 34977 ft 483 kts 83°
2026-04-28 20:32 40.36681 -16.78512 34977 ft 482 kts 83°
2026-04-28 20:33 40.37014 -16.69753 34978 ft 480 kts 83°
2026-04-28 20:33 40.37327 -16.61011 34979 ft 479 kts 83°
2026-04-28 20:34 40.37633 -16.52283 34978 ft 479 kts 84°
2026-04-28 20:34 40.37935 -16.43626 34971 ft 478 kts 84°
2026-04-28 20:35 40.38229 -16.34918 34913 ft 477 kts 84°
2026-04-28 20:35 40.38516 -16.26215 34904 ft 478 kts 84°
2026-04-28 20:36 40.38795 -16.17513 34899 ft 478 kts 84°
2026-04-28 20:36 40.39074 -16.08786 34900 ft 479 kts 84°
2026-04-28 20:37 40.39343 -16.00058 34902 ft 479 kts 84°
2026-04-28 20:37 40.39602 -15.91323 34910 ft 479 kts 85°
2026-04-28 20:38 40.39855 -15.82598 34914 ft 478 kts 85°
2026-04-28 20:38 40.40105 -15.73891 34915 ft 477 kts 85°
2026-04-28 20:39 40.40355 -15.65205 34915 ft 477 kts 85°
2026-04-28 20:39 40.40594 -15.56525 34910 ft 475 kts 85°
2026-04-28 20:40 40.40816 -15.47864 34908 ft 474 kts 85°
2026-04-28 20:40 40.41036 -15.39225 34906 ft 473 kts 86°
2026-04-28 20:41 40.41248 -15.30608 34905 ft 472 kts 86°
2026-04-28 20:41 40.41451 -15.22012 34905 ft 471 kts 86°
2026-04-28 20:42 40.41654 -15.13492 34906 ft 470 kts 86°
2026-04-28 20:42 40.41854 -15.04875 34907 ft 469 kts 86°
2026-04-28 20:43 40.42040 -14.96400 34906 ft 468 kts 87°
2026-04-28 20:43 40.42220 -14.87876 34903 ft 467 kts 87°
2026-04-28 20:44 40.42391 -14.79364 34903 ft 466 kts 88°
2026-04-28 20:44 40.42558 -14.70860 34902 ft 466 kts 88°
2026-04-28 20:45 40.42719 -14.62366 34898 ft 465 kts 88°
2026-04-28 20:45 40.42870 -14.53878 34891 ft 465 kts 88°
2026-04-28 20:46 40.43014 -14.45397 34886 ft 464 kts 88°
2026-04-28 20:46 40.43163 -14.36934 34889 ft 464 kts 89°
2026-04-28 20:47 40.43299 -14.28461 34881 ft 464 kts 89°
2026-04-28 20:47 40.43425 -14.20042 34881 ft 464 kts 89°
2026-04-28 20:48 40.43548 -14.11563 34873 ft 465 kts 89°
2026-04-28 20:48 40.43663 -14.03077 34871 ft 465 kts 89°
2026-04-28 20:49 40.43782 -13.94583 34875 ft 465 kts 89°
2026-04-28 20:49 40.43885 -13.86092 34881 ft 465 kts 89°
2026-04-28 20:50 40.43978 -13.77622 34884 ft 464 kts 90°
2026-04-28 20:50 40.44071 -13.69155 34884 ft 464 kts 90°
2026-04-28 20:51 40.44158 -13.60692 34886 ft 463 kts 90°
2026-04-28 20:51 40.44236 -13.52234 34884 ft 463 kts 90°
2026-04-28 20:52 40.44307 -13.43782 34886 ft 463 kts 90°
2026-04-28 20:52 40.44378 -13.35347 34884 ft 462 kts 90°
2026-04-28 20:53 40.44482 -13.22719 34887 ft 461 kts 90°
2026-04-28 20:53 40.44529 -13.14326 34887 ft 460 kts 91°
2026-04-28 20:54 40.44565 -13.05945 34886 ft 459 kts 91°
2026-04-28 20:54 40.44607 -12.97580 34884 ft 458 kts 91°
2026-04-28 20:55 40.44650 -12.89355 34881 ft 457 kts 91°
2026-04-28 20:55 40.44678 -12.81420 34879 ft 456 kts 91°
2026-04-28 20:56 40.44688 -12.73093 34876 ft 456 kts 91°
2026-04-28 20:56 40.44703 -12.64780 34872 ft 456 kts 91°
2026-04-28 20:57 40.44714 -12.56466 34868 ft 455 kts 91°
2026-04-28 20:57 40.44718 -12.48156 34864 ft 455 kts 92°
2026-04-28 20:58 40.44708 -12.39848 34861 ft 455 kts 92°
2026-04-28 20:58 40.44702 -12.31541 34856 ft 455 kts 92°
2026-04-28 20:59 40.44699 -12.23233 34850 ft 455 kts 92°
2026-04-28 20:59 40.44675 -12.14929 34846 ft 455 kts 92°
2026-04-28 21:00 40.44638 -12.06635 34844 ft 455 kts 92°
2026-04-28 21:00 40.44612 -11.98327 34845 ft 455 kts 92°
2026-04-28 21:01 40.44582 -11.90015 34848 ft 455 kts 92°
2026-04-28 21:01 40.44538 -11.81712 34852 ft 454 kts 94°
2026-04-28 21:02 40.44209 -11.73520 34860 ft 452 kts 97°
2026-04-28 21:02 40.43663 -11.65304 34866 ft 451 kts 97°
2026-04-28 21:03 40.43136 -11.57091 34869 ft 451 kts 97°
2026-04-28 21:03 40.42674 -11.48881 34870 ft 450 kts 96°
2026-04-28 21:04 40.42232 -11.40686 34870 ft 450 kts 97°
2026-04-28 21:04 40.41767 -11.32514 34868 ft 449 kts 97°
2026-04-28 21:05 40.41289 -11.24342 34869 ft 449 kts 97°
2026-04-28 21:05 40.40812 -11.16185 34874 ft 448 kts 97°
2026-04-28 21:06 40.40414 -11.09417 34877 ft 447 kts 97°
2026-04-28 21:06 40.39925 -11.01238 34880 ft 446 kts 97°
2026-04-28 21:07 40.39435 -10.93196 34879 ft 445 kts 97°
2026-04-28 21:07 40.38939 -10.85107 34880 ft 444 kts 97°
2026-04-28 21:08 40.38443 -10.77034 34881 ft 444 kts 98°
2026-04-28 21:08 40.37935 -10.68979 34879 ft 443 kts 98°
2026-04-28 21:09 40.37416 -10.60946 34879 ft 441 kts 98°
2026-04-28 21:09 40.36901 -10.52934 34882 ft 440 kts 98°
2026-04-28 21:10 40.36391 -10.44941 34877 ft 439 kts 98°
2026-04-28 21:10 40.35867 -10.36977 34875 ft 439 kts 98°
2026-04-28 21:11 40.35337 -10.29020 34874 ft 438 kts 98°
2026-04-28 21:11 40.34809 -10.21080 34874 ft 437 kts 99°
2026-04-28 21:12 40.34268 -10.13155 34872 ft 436 kts 99°
2026-04-28 21:12 40.33728 -10.05236 34868 ft 436 kts 99°
2026-04-28 21:13 40.33182 -9.97319 34866 ft 436 kts 99°
2026-04-28 21:13 40.32630 -9.89411 34870 ft 436 kts 99°
2026-04-28 21:14 40.32072 -9.81491 34868 ft 436 kts 99°
2026-04-28 21:14 40.31505 -9.73572 34866 ft 436 kts 99°
2026-04-28 21:15 40.30933 -9.65657 34863 ft 436 kts 99°
2026-04-28 21:15 40.30359 -9.57741 34858 ft 436 kts 99°
2026-04-28 21:16 40.29784 -9.49875 34854 ft 437 kts 99°
2026-04-28 21:16 40.29194 -9.41905 34850 ft 437 kts 99°
2026-04-28 21:17 40.28614 -9.34014 34847 ft 438 kts 99°
2026-04-28 21:17 40.28021 -9.26078 34844 ft 439 kts 99°
2026-04-28 21:18 40.27412 -9.18071 34841 ft 439 kts 99°
2026-04-28 21:18 40.26808 -9.10163 34839 ft 440 kts 99°
2026-04-28 21:19 40.26180 -9.02133 34839 ft 441 kts 99°
2026-04-28 21:19 40.25552 -8.94131 34842 ft 442 kts 99°
2026-04-28 21:20 40.24926 -8.86162 34843 ft 443 kts 99°
2026-04-28 21:20 40.24287 -8.78125 34842 ft 444 kts 99°
2026-04-28 21:21 40.23638 -8.70078 34843 ft 445 kts 99°
2026-04-28 21:21 40.22987 -8.62021 34845 ft 446 kts 99°
2026-04-28 21:22 40.22320 -8.53945 34847 ft 447 kts 100°
2026-04-28 21:22 40.21762 -8.47225 34849 ft 447 kts 99°
2026-04-28 21:23 40.20985 -8.37767 34853 ft 448 kts 100°
2026-04-28 21:23 40.20311 -8.29659 34853 ft 449 kts 100°
2026-04-28 21:24 40.19630 -8.21544 34857 ft 449 kts 100°
2026-04-28 21:24 40.18938 -8.13441 34862 ft 449 kts 100°
2026-04-28 21:25 40.18243 -8.05325 34862 ft 449 kts 100°
2026-04-28 21:25 40.17539 -7.97213 34865 ft 449 kts 100°
2026-04-28 21:26 40.16825 -7.89111 34864 ft 449 kts 100°
2026-04-28 21:26 40.16107 -7.81008 34862 ft 448 kts 100°
2026-04-28 21:27 40.15385 -7.72911 34860 ft 448 kts 100°
2026-04-28 21:27 40.14667 -7.64814 34858 ft 448 kts 100°
2026-04-28 21:28 40.13938 -7.56712 34860 ft 449 kts 100°
2026-04-28 21:28 40.13202 -7.48610 34858 ft 449 kts 100°
2026-04-28 21:29 40.12460 -7.40498 34859 ft 450 kts 101°
2026-04-28 21:29 40.11711 -7.32377 34857 ft 450 kts 101°
2026-04-28 21:30 40.10955 -7.24252 34857 ft 451 kts 101°
2026-04-28 21:30 40.10187 -7.16116 34861 ft 451 kts 101°
2026-04-28 21:31 40.09419 -7.07973 34864 ft 452 kts 101°
2026-04-28 21:31 40.08648 -6.99827 34870 ft 452 kts 101°
2026-04-28 21:32 40.07866 -6.91679 34872 ft 453 kts 101°
2026-04-28 21:32 40.07078 -6.83521 34878 ft 453 kts 101°
2026-04-28 21:33 40.06283 -6.75377 34878 ft 453 kts 101°
2026-04-28 21:33 40.05479 -6.67224 34886 ft 453 kts 101°
2026-04-28 21:34 40.04674 -6.59125 34889 ft 453 kts 101°
2026-04-28 21:34 40.03861 -6.50919 34898 ft 453 kts 101°
2026-04-28 21:35 40.03054 -6.42841 34903 ft 452 kts 101°
2026-04-28 21:35 40.02233 -6.34704 34907 ft 452 kts 101°
2026-04-28 21:36 40.01408 -6.26578 34906 ft 451 kts 101°
2026-04-28 21:36 40.00571 -6.18467 34908 ft 451 kts 101°
2026-04-28 21:37 39.99729 -6.10359 34909 ft 451 kts 101°
2026-04-28 21:37 39.98890 -6.02267 34909 ft 450 kts 101°
2026-04-28 21:38 39.97945 -5.94202 34908 ft 449 kts 104°
2026-04-28 21:38 39.96693 -5.86251 34906 ft 448 kts 106°
2026-04-28 21:39 39.95359 -5.78313 34907 ft 448 kts 105°
2026-04-28 21:39 39.94081 -5.70359 34909 ft 449 kts 105°
2026-04-28 21:40 39.92840 -5.62388 34908 ft 449 kts 105°
2026-04-28 21:40 39.91601 -5.54470 34911 ft 449 kts 105°
2026-04-28 21:41 39.90342 -5.46493 34913 ft 450 kts 105°
2026-04-28 21:41 39.89062 -5.38521 34913 ft 450 kts 105°
2026-04-28 21:42 39.87769 -5.30535 34912 ft 451 kts 105°
2026-04-28 21:42 39.86483 -5.22529 34911 ft 452 kts 105°
2026-04-28 21:43 39.85198 -5.14512 34909 ft 453 kts 105°
2026-04-28 21:43 39.83891 -5.06491 34907 ft 454 kts 105°
2026-04-28 21:44 39.82568 -4.98454 34905 ft 455 kts 105°
2026-04-28 21:44 39.81242 -4.90406 34902 ft 455 kts 105°
2026-04-28 21:45 39.79918 -4.82337 34902 ft 457 kts 105°
2026-04-28 21:45 39.78586 -4.74246 34905 ft 458 kts 105°
2026-04-28 21:46 39.77239 -4.66148 34908 ft 459 kts 105°
2026-04-28 21:46 39.75879 -4.58031 34905 ft 460 kts 105°
2026-04-28 21:47 39.74508 -4.49900 34904 ft 461 kts 105°
2026-04-28 21:47 39.73135 -4.41755 34904 ft 462 kts 105°
2026-04-28 21:48 39.71759 -4.33598 34905 ft 463 kts 105°
2026-04-28 21:48 39.70373 -4.25432 34909 ft 463 kts 106°
2026-04-28 21:49 39.68973 -4.17259 34913 ft 464 kts 106°
2026-04-28 21:49 39.67568 -4.09097 34915 ft 464 kts 106°
2026-04-28 21:50 39.66157 -4.00923 34918 ft 464 kts 106°
2026-04-28 21:50 39.64743 -3.92743 34916 ft 465 kts 106°
2026-04-28 21:51 39.63314 -3.84560 34917 ft 465 kts 106°
2026-04-28 21:51 39.61884 -3.76372 34918 ft 466 kts 106°
2026-04-28 21:52 39.60692 -3.69566 34919 ft 466 kts 106°
2026-04-28 21:52 39.59240 -3.61371 34913 ft 466 kts 106°
2026-04-28 21:53 39.57790 -3.53186 34913 ft 466 kts 105°
2026-04-28 21:53 39.56334 -3.45007 34917 ft 466 kts 105°
2026-04-28 21:54 39.54885 -3.36819 34924 ft 466 kts 105°
2026-04-28 21:54 39.53419 -3.28630 34925 ft 467 kts 105°
2026-04-28 21:55 39.51937 -3.20435 34927 ft 467 kts 105°
2026-04-28 21:55 39.50446 -3.12247 34931 ft 468 kts 105°
2026-04-28 21:56 39.48958 -3.04043 34939 ft 468 kts 105°
2026-04-28 21:56 39.47466 -2.95832 34933 ft 469 kts 104°
2026-04-28 21:57 39.45962 -2.87622 34941 ft 469 kts 105°
2026-04-28 21:57 39.44444 -2.79409 34946 ft 470 kts 104°
2026-04-28 21:58 39.42925 -2.71187 34947 ft 470 kts 104°
2026-04-28 21:58 39.41399 -2.62954 34953 ft 471 kts 104°
2026-04-28 21:59 39.39868 -2.54727 34956 ft 471 kts 104°
2026-04-28 22:00 39.37547 -2.42383 34957 ft 471 kts 104°
2026-04-28 22:00 39.35995 -2.34158 34960 ft 471 kts 104°
2026-04-28 22:01 39.34442 -2.25923 34964 ft 472 kts 104°
2026-04-28 22:01 39.32880 -2.17681 34966 ft 473 kts 104°
2026-04-28 22:02 39.31316 -2.09485 34972 ft 474 kts 104°
2026-04-28 22:02 39.29722 -2.01165 34980 ft 474 kts 104°
2026-04-28 22:03 39.28147 -1.92965 35000 ft 474 kts 104°
2026-04-28 22:03 39.26556 -1.84708 34992 ft 474 kts 104°
2026-04-28 22:04 39.24959 -1.76457 34987 ft 474 kts 104°
2026-04-28 22:04 39.23348 -1.68198 35004 ft 475 kts 104°
2026-04-28 22:05 39.21728 -1.59938 34998 ft 475 kts 104°
2026-04-28 22:05 39.20108 -1.51689 35005 ft 474 kts 104°
2026-04-28 22:06 39.18489 -1.43454 34999 ft 474 kts 104°
2026-04-28 22:06 39.16865 -1.35243 35001 ft 473 kts 104°
2026-04-28 22:07 39.15230 -1.27025 35001 ft 473 kts 104°
2026-04-28 22:07 39.13587 -1.18816 34990 ft 473 kts 104°
2026-04-28 22:08 39.11949 -1.10616 34993 ft 473 kts 104°
2026-04-28 22:08 39.10304 -1.02414 34989 ft 473 kts 104°
2026-04-28 22:09 39.08656 -0.94215 34996 ft 473 kts 104°
2026-04-28 22:09 39.06994 -0.86027 34999 ft 473 kts 105°
2026-04-28 22:10 39.05318 -0.77849 34986 ft 472 kts 105°
2026-04-28 22:10 39.03650 -0.69688 34984 ft 472 kts 105°
2026-04-28 22:11 39.01982 -0.61527 34982 ft 472 kts 105°
2026-04-28 22:11 39.00297 -0.53380 34978 ft 471 kts 105°
2026-04-28 22:12 38.98614 -0.45235 34977 ft 471 kts 105°
2026-04-28 22:12 38.96936 -0.37092 34972 ft 471 kts 105°
2026-04-28 22:13 38.95257 -0.29012 34968 ft 471 kts 105°
2026-04-28 22:13 38.93551 -0.20888 34962 ft 471 kts 105°
2026-04-28 22:14 38.91833 -0.12718 34960 ft 471 kts 105°
2026-04-28 22:14 38.90142 -0.04662 34959 ft 471 kts 105°
2026-04-28 22:15 38.88431 0.03452 34961 ft 471 kts 105°
2026-04-28 22:15 38.86718 0.11563 34979 ft 470 kts 107°
2026-04-28 22:16 38.85010 0.19574 34934 ft 458 kts 108°
2026-04-28 22:16 38.83329 0.27401 34945 ft 454 kts 108°
2026-04-28 22:17 38.81653 0.35196 34940 ft 453 kts 108°
2026-04-28 22:17 38.79977 0.42984 34941 ft 453 kts 108°
2026-04-28 22:18 38.78300 0.50760 34943 ft 453 kts 108°
2026-04-28 22:18 38.76608 0.58538 34938 ft 453 kts 108°
2026-04-28 22:19 38.74913 0.66314 34940 ft 453 kts 108°
2026-04-28 22:19 38.73214 0.74088 34934 ft 453 kts 109°
2026-04-28 22:20 38.71514 0.81862 34933 ft 453 kts 109°
2026-04-28 22:20 38.69808 0.89635 34928 ft 453 kts 109°
2026-04-28 22:21 38.68097 0.97390 34925 ft 453 kts 109°
2026-04-28 22:21 38.66381 1.05150 34921 ft 453 kts 109°
2026-04-28 22:22 38.64657 1.12904 34920 ft 453 kts 109°
2026-04-28 22:22 38.62927 1.20654 34918 ft 453 kts 109°
2026-04-28 22:23 38.61193 1.28405 34919 ft 454 kts 109°
2026-04-28 22:23 38.59454 1.36160 34919 ft 454 kts 109°
2026-04-28 22:24 38.57709 1.43913 34922 ft 454 kts 109°
2026-04-28 22:24 38.55960 1.51662 34923 ft 454 kts 109°
2026-04-28 22:25 38.54205 1.59401 34925 ft 454 kts 110°
2026-04-28 22:25 38.52440 1.67147 34930 ft 454 kts 110°
2026-04-28 22:26 38.50671 1.74892 34931 ft 454 kts 110°
2026-04-28 22:26 38.48897 1.82629 34938 ft 454 kts 110°
2026-04-28 22:27 38.47120 1.90351 34936 ft 453 kts 110°
2026-04-28 22:27 38.45335 1.98071 34932 ft 454 kts 110°
2026-04-28 22:28 38.43548 2.05797 34937 ft 454 kts 110°
2026-04-28 22:28 38.41771 2.13464 34945 ft 454 kts 110°
2026-04-28 22:29 38.39972 2.21193 34945 ft 455 kts 110°
2026-04-28 22:29 38.38169 2.28923 34946 ft 455 kts 110°
2026-04-28 22:30 38.36356 2.36647 34951 ft 455 kts 110°
2026-04-28 22:30 38.34543 2.44367 34952 ft 455 kts 110°
2026-04-28 22:31 38.32719 2.52086 34943 ft 455 kts 110°
2026-04-28 22:31 38.30891 2.59800 34943 ft 456 kts 111°
2026-04-28 22:32 38.29059 2.67522 34949 ft 456 kts 110°
2026-04-28 22:32 38.27226 2.75249 34948 ft 456 kts 110°
2026-04-28 22:33 38.25377 2.82976 34951 ft 457 kts 111°
2026-04-28 22:33 38.23517 2.90704 34954 ft 457 kts 111°
2026-04-28 22:34 38.21649 2.98444 34957 ft 458 kts 111°
2026-04-28 22:34 38.19776 3.06193 34954 ft 459 kts 111°
2026-04-28 22:35 38.17898 3.13951 34953 ft 460 kts 111°
2026-04-28 22:35 38.16013 3.21722 34954 ft 461 kts 111°
2026-04-28 22:36 38.14116 3.29511 34951 ft 462 kts 111°
2026-04-28 22:36 38.12203 3.37312 34952 ft 463 kts 111°
2026-04-28 22:37 38.10287 3.45136 34953 ft 464 kts 111°
2026-04-28 22:37 38.08361 3.52963 34954 ft 465 kts 111°
2026-04-28 22:38 38.06419 3.60812 34956 ft 467 kts 111°
2026-04-28 22:38 38.04798 3.67348 34957 ft 467 kts 111°
2026-04-28 22:39 38.02842 3.75223 34955 ft 468 kts 112°
2026-04-28 22:39 38.00880 3.83108 34958 ft 469 kts 112°
2026-04-28 22:40 37.98912 3.90995 34960 ft 470 kts 112°
2026-04-28 22:40 37.96924 3.98894 34963 ft 471 kts 112°
2026-04-28 22:41 37.94933 4.06799 34966 ft 471 kts 112°
2026-04-28 22:41 37.92941 4.14702 34969 ft 471 kts 112°
2026-04-28 22:42 37.90939 4.22599 34970 ft 471 kts 112°
2026-04-28 22:42 37.88932 4.30494 34969 ft 471 kts 112°
2026-04-28 22:43 37.86916 4.38391 34967 ft 472 kts 112°
2026-04-28 22:43 37.84897 4.46289 34967 ft 472 kts 112°
2026-04-28 22:44 37.82881 4.54207 34968 ft 473 kts 112°
2026-04-28 22:44 37.80843 4.62133 34966 ft 474 kts 112°
2026-04-28 22:45 37.78789 4.70065 34967 ft 475 kts 112°
2026-04-28 22:45 37.76726 4.78009 34965 ft 476 kts 112°
2026-04-28 22:46 37.74662 4.85965 34964 ft 477 kts 112°
2026-04-28 22:46 37.72585 4.93928 34961 ft 478 kts 112°
2026-04-28 22:47 37.70481 5.01895 34959 ft 478 kts 113°
2026-04-28 22:47 37.68200 5.09774 34959 ft 478 kts 115°
2026-04-28 22:48 37.65796 5.17608 34959 ft 479 kts 115°
2026-04-28 22:48 37.63415 5.25407 34957 ft 480 kts 114°
2026-04-28 22:49 37.61051 5.33292 34948 ft 481 kts 114°
2026-04-28 22:49 37.58494 5.41059 34949 ft 479 kts 118°
2026-04-28 22:50 37.55623 5.48637 34944 ft 479 kts 120°
2026-04-28 22:50 37.52688 5.56181 34945 ft 480 kts 120°
2026-04-28 22:51 37.49766 5.63743 34946 ft 480 kts 120°
2026-04-28 22:51 37.46861 5.71315 34947 ft 481 kts 119°
2026-04-28 22:52 37.43953 5.78895 34948 ft 481 kts 119°
2026-04-28 22:52 37.41034 5.86474 34948 ft 481 kts 120°
2026-04-28 22:53 37.38102 5.94043 34951 ft 481 kts 120°
2026-04-28 22:53 37.35169 6.01598 34953 ft 481 kts 120°
2026-04-28 22:54 37.32232 6.09165 34944 ft 482 kts 120°
2026-04-28 22:54 37.29292 6.16737 34948 ft 483 kts 120°
2026-04-28 22:55 37.26338 6.24311 34953 ft 483 kts 120°
2026-04-28 22:55 37.23371 6.31877 34953 ft 483 kts 120°
2026-04-28 22:56 37.20401 6.39443 34952 ft 483 kts 120°
2026-04-28 22:56 37.17450 6.46959 34958 ft 483 kts 120°
2026-04-28 22:57 37.14473 6.54506 34960 ft 483 kts 120°
2026-04-28 22:57 37.11482 6.62064 34963 ft 483 kts 120°
2026-04-28 22:58 37.08496 6.69604 34956 ft 484 kts 120°
2026-04-28 22:58 37.05505 6.77145 34959 ft 483 kts 120°
2026-04-28 22:59 37.02514 6.84682 34961 ft 483 kts 120°
2026-04-28 22:59 36.99521 6.92208 34957 ft 482 kts 120°
2026-04-28 23:00 36.96519 6.99716 34950 ft 483 kts 121°
2026-04-28 23:00 36.93507 7.07216 34949 ft 483 kts 121°
2026-04-28 23:01 36.90490 7.14702 34950 ft 483 kts 121°
2026-04-28 23:01 36.87474 7.22200 34944 ft 483 kts 120°
2026-04-28 23:02 36.84452 7.29691 34936 ft 483 kts 121°
2026-04-28 23:02 36.81443 7.37128 34933 ft 483 kts 121°
2026-04-28 23:03 36.78409 7.44612 34929 ft 483 kts 121°
2026-04-28 23:03 36.75367 7.52088 34924 ft 483 kts 121°
2026-04-28 23:04 36.72322 7.59565 34922 ft 484 kts 121°
2026-04-28 23:04 36.67740 7.70767 34916 ft 484 kts 121°
2026-04-28 23:05 36.64680 7.78243 34918 ft 484 kts 121°
2026-04-28 23:05 36.61617 7.85723 34920 ft 485 kts 121°
2026-04-28 23:06 36.58541 7.93193 34928 ft 485 kts 121°
2026-04-28 23:06 36.55454 8.00655 34930 ft 485 kts 121°
2026-04-28 23:07 36.52372 8.08108 34934 ft 485 kts 121°
2026-04-28 23:07 36.49282 8.15573 34932 ft 486 kts 121°
2026-04-28 23:08 36.46182 8.23037 34946 ft 486 kts 121°
2026-04-28 23:08 36.43070 8.30494 34952 ft 486 kts 122°
2026-04-28 23:09 36.39113 8.37150 34959 ft 475 kts 140°
2026-04-28 23:09 36.33955 8.42091 34969 ft 466 kts 152°
2026-04-28 23:10 36.28554 8.46550 34975 ft 467 kts 152°
2026-04-28 23:10 36.23163 8.51023 34980 ft 467 kts 152°
2026-04-28 23:11 36.17758 8.55487 34984 ft 467 kts 152°
2026-04-28 23:11 36.12382 8.59911 35001 ft 467 kts 152°
2026-04-28 23:12 36.06969 8.64363 35006 ft 467 kts 152°
2026-04-28 23:12 36.01553 8.68808 34999 ft 467 kts 152°
2026-04-28 23:13 35.96138 8.73251 34997 ft 468 kts 153°
2026-04-28 23:13 35.90710 8.77688 34995 ft 468 kts 153°
2026-04-28 23:14 35.85280 8.82124 35001 ft 469 kts 153°
2026-04-28 23:14 35.79832 8.86558 35005 ft 469 kts 153°
2026-04-28 23:15 35.74383 8.90996 35007 ft 470 kts 153°
2026-04-28 23:15 35.68937 8.95430 35010 ft 470 kts 154°
2026-04-28 23:16 35.63483 8.99862 35016 ft 470 kts 154°
2026-04-28 23:16 35.58023 9.04276 35016 ft 470 kts 154°
2026-04-28 23:17 35.52550 9.08658 35009 ft 469 kts 155°
2026-04-28 23:17 35.47006 9.12869 35007 ft 468 kts 156°
2026-04-28 23:18 35.41433 9.17009 35014 ft 469 kts 156°
2026-04-28 23:18 35.35866 9.21178 35019 ft 469 kts 156°
2026-04-28 23:19 35.30307 9.25368 35018 ft 469 kts 156°
2026-04-28 23:19 35.24751 9.29554 35010 ft 469 kts 156°
2026-04-28 23:20 35.19185 9.33742 35014 ft 470 kts 156°
2026-04-28 23:20 35.13613 9.37920 35012 ft 470 kts 157°
2026-04-28 23:21 35.08036 9.42091 35016 ft 470 kts 157°
2026-04-28 23:21 35.02455 9.46257 34737 ft 470 kts 157°
2026-04-28 23:22 34.99659 9.48343 34483 ft 471 kts 157°
2026-04-28 23:22 34.97813 9.49720 34254 ft 471 kts 157°
2026-04-28 23:22 34.94027 9.52538 32881 ft 481 kts 157°
2026-04-28 23:22 34.91164 9.54664 31908 ft 485 kts 156°
2026-04-28 23:23 34.88261 9.56817 30859 ft 491 kts 156°
2026-04-28 23:23 34.85339 9.58989 29814 ft 494 kts 155°
2026-04-28 23:23 34.82396 9.61179 28644 ft 498 kts 155°
2026-04-28 23:23 34.79428 9.63383 27493 ft 501 kts 154°
2026-04-28 23:24 34.76480 9.65568 26338 ft 503 kts 154°
2026-04-28 23:24 34.73480 9.67791 25020 ft 507 kts 153°
2026-04-28 23:24 34.70469 9.70025 23793 ft 508 kts 152°
2026-04-28 23:24 34.67475 9.72248 23030 ft 500 kts 152°
2026-04-28 23:25 34.64531 9.74432 22235 ft 493 kts 152°
2026-04-28 23:25 34.61610 9.76591 21456 ft 487 kts 152°
2026-04-28 23:25 34.58739 9.78713 20670 ft 481 kts 152°
2026-04-28 23:25 34.55899 9.80809 19883 ft 475 kts 152°
2026-04-28 23:26 34.53093 9.82873 19099 ft 469 kts 152°
2026-04-28 23:26 34.50321 9.84908 18326 ft 463 kts 152°
2026-04-28 23:26 34.47585 9.86916 17571 ft 457 kts 152°
2026-04-28 23:26 34.44887 9.88898 16821 ft 451 kts 152°
2026-04-28 23:27 34.43113 9.90201 16328 ft 448 kts 152°
2026-04-28 23:27 34.39740 9.93097 15344 ft 444 kts 141°
2026-04-28 23:27 34.38236 9.94840 14830 ft 441 kts 138°
2026-04-28 23:27 34.36086 9.97394 14077 ft 436 kts 138°
2026-04-28 23:28 34.33935 9.99951 13360 ft 431 kts 137°
2026-04-28 23:28 34.31811 10.02473 12623 ft 425 kts 138°
2026-04-28 23:28 34.29709 10.04960 11875 ft 420 kts 138°
2026-04-28 23:28 34.27646 10.07399 11459 ft 407 kts 137°
2026-04-28 23:29 34.25647 10.09765 11331 ft 387 kts 137°
2026-04-28 23:29 34.23769 10.11989 11206 ft 370 kts 137°
2026-04-28 23:29 34.21968 10.14119 11083 ft 354 kts 137°
2026-04-28 23:29 34.20264 10.16131 10956 ft 340 kts 137°
2026-04-28 23:30 34.18601 10.18088 10825 ft 327 kts 137°
2026-04-28 23:30 34.17003 10.19968 10704 ft 314 kts 137°
2026-04-28 23:30 34.15460 10.21786 10464 ft 307 kts 137°
2026-04-28 23:30 34.13921 10.23598 10117 ft 303 kts 137°
2026-04-28 23:31 34.12429 10.25355 9934 ft 298 kts 137°
2026-04-28 23:31 34.10933 10.27114 9444 ft 303 kts 137°
2026-04-28 23:31 34.09439 10.28867 9124 ft 297 kts 136°
2026-04-28 23:31 34.07957 10.30604 8705 ft 296 kts 136°
2026-04-28 23:32 34.06484 10.32331 8310 ft 294 kts 136°
2026-04-28 23:32 34.05026 10.34040 7935 ft 291 kts 136°
2026-04-28 23:32 34.03580 10.35734 7564 ft 288 kts 136°
2026-04-28 23:32 34.02166 10.37392 7173 ft 286 kts 136°
2026-04-28 23:33 34.00731 10.39072 6768 ft 283 kts 136°
2026-04-28 23:33 33.99345 10.40698 6384 ft 281 kts 136°
2026-04-28 23:33 33.97952 10.42332 5970 ft 279 kts 136°
2026-04-28 23:33 33.96567 10.43956 5572 ft 277 kts 136°
2026-04-28 23:34 33.95196 10.45562 5195 ft 273 kts 136°
2026-04-28 23:34 33.93818 10.47174 4494 ft 281 kts 136°
2026-04-28 23:34 33.92397 10.48834 3843 ft 286 kts 136°
2026-04-28 23:34 33.90993 10.50471 3640 ft 274 kts 135°
2026-04-28 23:35 33.89660 10.52024 3529 ft 260 kts 135°
2026-04-28 23:35 33.88395 10.53504 3411 ft 247 kts 133°
2026-04-28 23:35 33.87448 10.55147 3304 ft 234 kts 115°
2026-04-28 23:35 33.87039 10.56978 3076 ft 222 kts 97°
2026-04-28 23:36 33.87058 10.58765 2794 ft 204 kts 91°
2026-04-28 23:36 33.87102 10.60387 2559 ft 183 kts 90°
2026-04-28 23:36 33.87140 10.61842 2319 ft 166 kts 90°
2026-04-28 23:36 33.87174 10.63179 2103 ft 154 kts 89°
2026-04-28 23:37 33.87206 10.64443 1927 ft 150 kts 89°
2026-04-28 23:37 33.87241 10.65750 1714 ft 161 kts 88°
2026-04-28 23:37 33.87277 10.67106 1481 ft 163 kts 88°
2026-04-28 23:37 33.87312 10.68474 1272 ft 165 kts 88°
2026-04-28 23:38 33.87347 10.69863 1053 ft 166 kts 88°
2026-04-28 23:38 33.87382 10.71251 843 ft 166 kts 88°
2026-04-28 23:38 33.87412 10.72602 638 ft 153 kts 88°
2026-04-28 23:38 33.87455 10.73827 397 ft 142 kts 88°
2026-04-28 23:39 33.87476 10.74999 203 ft 139 kts 89°
2026-04-28 23:39 33.87503 10.76145 43 ft 136 kts 85°
2026-04-28 23:39 33.87534 10.77199 22 ft 105 kts 88°
2026-04-28 23:39 33.87550 10.77894 23 ft 58 kts 88°
2026-04-28 23:40 33.87561 10.78258 24 ft 29 kts 89°
2026-04-28 23:40 33.87565 10.78503 24 ft 24 kts 89°
2026-04-28 23:40 33.87499 10.78595 28 ft 15 kts 172°
2026-04-28 23:40 33.87408 10.78559 27 ft 14 kts 236°
2026-04-28 23:41 33.87396 10.78444 25 ft 14 kts 268°
2026-04-28 23:41 33.87392 10.78298 25 ft 21 kts 267°
2026-04-28 23:41 33.87398 10.78131 24 ft 20 kts 270°
2026-04-28 23:41 33.87391 10.77963 23 ft 20 kts 269°
2026-04-28 23:42 33.87391 10.77802 24 ft 17 kts 268°
2026-04-28 23:42 33.87387 10.77662 24 ft 17 kts 268°
2026-04-28 23:42 33.87385 10.77547 22 ft 11 kts 269°
2026-04-28 23:42 33.87383 10.77452 22 ft 12 kts 268°
2026-04-28 23:43 33.87380 10.77343 22 ft 16 kts 268°
2026-04-28 23:43 33.87342 10.77278 22 ft 9 kts 175°
2026-04-28 23:43 33.87288 10.77329 23 ft 8 kts 130°
2026-04-28 23:43 33.87263 10.77362 22 ft 5 kts 130°
2026-04-28 23:44 33.87249 10.77382 22 ft 1 kts 129°
2026-04-28 23:44 33.87248 10.77384 22 ft 0 kts 129°